timestamp,surface_pressure_avg,surface_temp_avg,battery_voltage,lat,long
2022-05-31 00:09:00+00:00,369.1678,8.6,12.25,47.84626,-54.09684
2022-05-31 00:19:00+00:00,366.173,8.6,12.17,47.84626,-54.09684
2022-05-31 00:29:00+00:00,366.7296,8.67,12.17,47.84626,-54.09684
2022-05-31 00:39:00+00:00,366.7112,8.69,12.17,47.84626,-54.09684
2022-05-31 00:49:00+00:00,363.8412,8.7,12.17,47.84626,-54.09684
2022-05-31 00:59:00+00:00,362.7697,8.7,12.17,47.84626,-54.09684
2022-05-31 01:09:00+00:00,359.5963,8.74,12.17,47.84626,-54.09684
2022-05-31 01:19:01+00:00,356.1563,8.8,12.17,47.84626,-54.09684
2022-05-31 01:29:01+00:00,350.3496,8.8,12.17,47.84626,-54.09684
2022-05-31 01:39:01+00:00,349.1562,8.87,12.17,47.84626,-54.09684
2022-05-31 01:49:01+00:00,347.5146,8.9,12.17,47.84626,-54.09684
2022-05-31 01:59:01+00:00,342.3246,8.92,12.17,47.84626,-54.09684
2022-05-31 02:09:01+00:00,336.5063,8.99,12.17,47.84626,-54.09684
2022-05-31 02:19:00+00:00,334.8679,9.0,12.17,47.84626,-54.09684
2022-05-31 02:29:00+00:00,331.673,9.08,12.17,47.84626,-54.09684
2022-05-31 02:39:00+00:00,319.5847,9.1,12.17,47.84626,-54.09684
2022-05-31 02:49:00+00:00,309.5564,9.2,12.17,47.84626,-54.09684
2022-05-31 02:59:00+00:00,302.6597,9.28,12.17,47.84626,-54.09684
2022-05-31 03:09:00+00:00,296.543,9.31,12.17,47.84626,-54.09684
2022-05-31 03:19:00+00:00,286.3181,9.4,12.17,47.84626,-54.09684
2022-05-31 03:29:00+00:00,275.788,9.5,12.17,47.84626,-54.09684
2022-05-31 03:39:00+00:00,266.3781,9.58,12.17,47.84626,-54.09684
2022-05-31 03:49:00+00:00,262.3931,9.59,12.17,47.84626,-54.09684
2022-05-31 03:59:00+00:00,254.8681,9.59,12.17,47.84626,-54.09684
2022-05-31 04:09:00+00:00,245.5197,9.7,12.17,47.84626,-54.09684
2022-05-31 04:19:00+00:00,240.3664,9.82,12.17,47.84626,-54.09684
2022-05-31 04:29:00+00:00,235.7497,9.89,12.17,47.84626,-54.09684
2022-05-31 04:39:00+00:00,226.6481,9.89,12.17,47.84626,-54.09684
2022-05-31 04:49:00+00:00,224.9914,9.9,12.17,47.84626,-54.09684
2022-05-31 04:59:00+00:00,226.3648,9.9,12.17,47.84626,-54.09684
2022-05-31 05:09:00+00:00,219.9381,9.9,12.17,47.84626,-54.09684
2022-05-31 05:19:01+00:00,211.7498,9.96,12.17,47.84626,-54.09684
2022-05-31 05:29:01+00:00,204.8814,10.02,12.17,47.84626,-54.09684
2022-05-31 05:39:01+00:00,201.3881,10.1,12.17,47.84626,-54.09684
2022-05-31 05:49:01+00:00,200.1165,10.1,12.17,47.84626,-54.09684
2022-05-31 05:59:01+00:00,196.3248,10.1,12.17,47.84626,-54.09684
2022-05-31 06:09:01+00:00,196.8198,10.1,12.17,47.84626,-54.09684
2022-05-31 06:19:00+00:00,199.9248,10.05,12.17,47.84626,-54.09684
2022-05-31 06:29:00+00:00,201.1581,10.0,12.17,47.84626,-54.09684
2022-05-31 06:39:00+00:00,201.1498,9.9,12.17,47.84626,-54.09684
2022-05-31 06:49:00+00:00,205.2181,9.89,12.17,47.84626,-54.09684
2022-05-31 06:59:00+00:00,211.3031,9.9,12.17,47.84626,-54.09684
2022-05-31 07:09:00+00:00,213.6764,9.9,12.17,47.84626,-54.09684
2022-05-31 07:19:00+00:00,215.8281,9.94,12.09,47.84626,-54.09684
2022-05-31 07:29:00+00:00,216.9264,9.9,12.09,47.84626,-54.09684
2022-05-31 07:39:00+00:00,218.2531,9.8,12.09,47.84626,-54.09684
2022-05-31 07:49:00+00:00,223.8381,9.8,12.09,47.84626,-54.09684
2022-05-31 07:59:00+00:00,231.1664,9.6,12.09,47.84626,-54.09684
2022-05-31 08:09:00+00:00,232.9498,9.5,12.09,47.84626,-54.09684
2022-05-31 08:19:00+00:00,235.5731,9.4,12.09,47.84626,-54.09684
2022-05-31 08:29:00+00:00,238.7931,9.38,12.09,47.84626,-54.09684
2022-05-31 08:39:00+00:00,242.208,9.39,12.09,47.84626,-54.09684
2022-05-31 08:49:00+00:00,247.7048,9.3,12.09,47.84626,-54.09684
2022-05-31 08:59:00+00:00,252.4347,9.31,12.09,47.84626,-54.09684
2022-05-31 09:09:00+00:00,255.4131,9.3,12.09,47.84626,-54.09684
2022-05-31 09:19:01+00:00,257.8448,9.2,12.09,47.84626,-54.09684
2022-05-31 09:29:01+00:00,261.1147,9.08,12.09,47.84626,-54.09684
2022-05-31 09:39:01+00:00,265.7147,8.8,12.09,47.84626,-54.09684
2022-05-31 09:49:01+00:00,273.4147,8.75,12.09,47.84626,-54.09684
2022-05-31 09:59:01+00:00,280.6847,8.67,12.09,47.84626,-54.09684
2022-05-31 10:09:01+00:00,284.1814,8.62,12.09,47.84626,-54.09684
2022-05-31 10:19:01+00:00,292.7947,8.6,12.17,47.84626,-54.09684
2022-05-31 10:29:01+00:00,303.628,8.5,12.17,47.84626,-54.09684
2022-05-31 10:39:01+00:00,309.928,8.49,12.17,47.84626,-54.09684
2022-05-31 10:49:01+00:00,314.0347,8.45,12.17,47.84626,-54.09684
2022-05-31 10:59:01+00:00,322.7913,8.44,12.17,47.84626,-54.09684
2022-05-31 11:09:01+00:00,327.648,8.4,12.17,47.84626,-54.09684
2022-05-31 11:19:01+00:00,330.9446,8.4,12.09,47.84626,-54.09684
2022-05-31 11:29:01+00:00,334.4547,8.3,12.09,47.84626,-54.09684
2022-05-31 11:39:01+00:00,337.0579,8.3,12.09,47.84626,-54.09684
2022-05-31 11:49:01+00:00,333.5512,8.3,12.09,47.84626,-54.09684
2022-05-31 11:59:01+00:00,336.2263,8.3,12.09,47.84626,-54.09684
2022-05-31 12:09:01+00:00,341.9747,8.2,12.09,47.84626,-54.09684
2022-05-31 12:19:00+00:00,340.7213,8.26,12.17,47.84626,-54.09684
2022-05-31 12:29:00+00:00,337.788,8.26,12.17,47.84626,-54.09684
2022-05-31 12:39:00+00:00,337.2263,8.2,12.17,47.84626,-54.09684
2022-05-31 12:49:00+00:00,337.968,8.2,12.17,47.84626,-54.09684
2022-05-31 12:59:00+00:00,333.05800000000005,8.2,12.17,47.84626,-54.09684
2022-05-31 13:09:00+00:00,330.5613,8.28,12.17,47.84626,-54.09684
2022-05-31 13:19:01+00:00,329.3713,8.2,12.17,47.84626,-54.09684
2022-05-31 13:29:01+00:00,324.1964,8.1,12.17,47.84626,-54.09684
2022-05-31 13:39:01+00:00,318.1479,8.03,12.17,47.84626,-54.09684
2022-05-31 13:49:01+00:00,317.2429,8.6,12.17,47.84626,-54.09684
2022-05-31 13:59:01+00:00,316.70799999999997,8.5,12.17,47.84626,-54.09684
2022-05-31 14:09:01+00:00,312.1829,8.13,12.17,47.84626,-54.09684
2022-05-31 14:19:00+00:00,304.853,8.0,12.17,47.84626,-54.09684
2022-05-31 14:29:00+00:00,302.403,7.9,12.17,47.84626,-54.09684
2022-05-31 14:39:00+00:00,297.793,7.9,12.17,47.84626,-54.09684
2022-05-31 14:49:00+00:00,291.9697,7.88,12.17,47.84626,-54.09684
2022-05-31 14:59:00+00:00,284.308,8.0,12.17,47.84626,-54.09684
2022-05-31 15:09:00+00:00,276.243,8.0,12.17,47.84626,-54.09684
2022-05-31 15:19:01+00:00,269.8347,8.0,12.09,47.84626,-54.09684
2022-05-31 15:29:01+00:00,263.2414,8.0,12.09,47.84626,-54.09684
2022-05-31 15:39:01+00:00,255.1431,8.16,12.09,47.84626,-54.09684
2022-05-31 15:49:01+00:00,246.1997,8.26,12.09,47.84626,-54.09684
2022-05-31 15:59:01+00:00,243.3964,8.33,12.09,47.84626,-54.09684
2022-05-31 16:09:01+00:00,238.9081,8.4,12.09,47.84626,-54.09684
2022-05-31 16:19:00+00:00,231.8014,8.36,12.09,47.84626,-54.09684
2022-05-31 16:29:00+00:00,226.5197,8.35,12.09,47.84626,-54.09684
2022-05-31 16:39:00+00:00,223.9014,8.44,12.09,47.84626,-54.09684
2022-05-31 16:49:00+00:00,220.5331,8.64,12.09,47.84626,-54.09684
2022-05-31 16:59:00+00:00,215.3848,8.69,12.09,47.84626,-54.09684
2022-05-31 17:09:00+00:00,212.3998,8.7,12.09,47.84626,-54.09684
2022-05-31 17:19:01+00:00,210.9731,8.7,12.17,47.84626,-54.09684
2022-05-31 17:29:01+00:00,208.1498,8.6,12.17,47.84626,-54.09684
2022-05-31 17:39:01+00:00,204.3681,8.72,12.17,47.84626,-54.09684
2022-05-31 17:49:01+00:00,204.6481,8.89,12.17,47.84626,-54.09684
2022-05-31 17:59:01+00:00,206.3998,9.1,12.17,47.84626,-54.09684
2022-05-31 18:09:01+00:00,206.3764,9.11,12.17,47.84626,-54.09684
2022-05-31 18:19:00+00:00,207.2064,9.2,12.09,47.84626,-54.09684
2022-05-31 18:29:00+00:00,207.2097,9.39,12.09,47.84626,-54.09684
2022-05-31 18:39:00+00:00,206.6231,9.58,12.09,47.84626,-54.09684
2022-05-31 18:49:00+00:00,210.1564,9.4,12.09,47.84626,-54.09684
2022-05-31 18:59:00+00:00,212.9581,9.8,12.09,47.84626,-54.09684
2022-05-31 19:09:00+00:00,214.3531,9.66,12.09,47.84626,-54.09684
2022-05-31 19:19:00+00:00,220.0115,9.77,12.09,47.84626,-54.09684
2022-05-31 19:29:00+00:00,226.1447,9.65,12.09,47.84626,-54.09684
2022-05-31 19:39:00+00:00,227.178,9.43,12.09,47.84626,-54.09684
2022-05-31 19:49:00+00:00,230.9764,9.4,12.09,47.84626,-54.09684
2022-05-31 19:59:00+00:00,241.2764,9.23,12.09,47.84626,-54.09684
2022-05-31 20:09:00+00:00,243.0231,9.59,12.09,47.84626,-54.09684
2022-05-31 20:19:00+00:00,241.0131,9.39,12.09,47.84626,-54.09684
2022-05-31 20:29:00+00:00,247.2448,8.82,12.09,47.84626,-54.09684
2022-05-31 20:39:00+00:00,254.3364,8.3,12.09,47.84626,-54.09684
2022-05-31 20:49:00+00:00,255.6481,8.51,12.09,47.84626,-54.09684
2022-05-31 20:59:00+00:00,258.5748,8.69,12.09,47.84626,-54.09684
2022-05-31 21:09:00+00:00,268.533,8.7,12.09,47.84626,-54.09684
2022-05-31 21:19:00+00:00,272.4715,9.76,12.09,47.84626,-54.09684
2022-05-31 21:29:00+00:00,276.498,9.23,12.09,47.84626,-54.09684
2022-05-31 21:39:00+00:00,284.6014,8.5,12.09,47.84626,-54.09684
2022-05-31 21:49:00+00:00,296.3214,8.6,12.09,47.84626,-54.09684
2022-05-31 21:59:00+00:00,298.778,8.53,12.09,47.84626,-54.09684
2022-05-31 22:09:00+00:00,300.723,8.5,12.09,47.84626,-54.09684
2022-05-31 22:19:01+00:00,310.8413,8.5,12.09,47.84626,-54.09684
2022-05-31 22:29:01+00:00,321.7947,8.5,12.09,47.84626,-54.09684
2022-05-31 22:39:01+00:00,323.6713,8.3,12.09,47.84626,-54.09684
2022-05-31 22:49:01+00:00,329.7063,8.2,12.09,47.84626,-54.09684
2022-05-31 22:59:01+00:00,342.7097,8.22,12.09,47.84626,-54.09684
2022-05-31 23:09:01+00:00,348.6213,8.2,12.09,47.84626,-54.09684
2022-05-31 23:19:01+00:00,349.4163,8.1,12.09,47.84626,-54.09684
2022-05-31 23:29:01+00:00,356.6162,8.1,12.09,47.84626,-54.09684
2022-05-31 23:39:01+00:00,361.6813,8.0,12.09,47.84626,-54.09684
2022-05-31 23:49:01+00:00,362.7064,8.0,12.09,47.84626,-54.09684
2022-05-31 23:59:01+00:00,363.6413,8.0,12.09,47.84626,-54.09684
